Regional Weather Roundup
Issued by NWS

Home | Current Version | Previous Version | Text Only | Print | Product List | Glossary Off
Versions: 1 2 3 4 5 6 7 8 9 10 11 12 13 14 15 16 17 18 19 20 21 22 23 24 25 26 27 28 29 30 31 32 33 34 35 36 37 38 39 40 41 42 43 44 45 46 47 48 49 50

000
ASUS43 KLMK 311210
RWRKY
KENTUCKY REGIONAL WEATHER ROUNDUP
NATIONAL WEATHER SERVICE LOUISVILLE KY
800 AM EDT THU JUL 31 2014

NOTE "FAIR" INDICATES FEW OR NO CLOUDS BELOW 12,000 FEET
WITH NO SIGNIFICANT WEATHER AND/OR OBSTRUCTIONS TO VISIBILITY.

KYZ001>023-026-027-061>063-070>075-311300-
WESTERN AND SOUTH CENTRAL KENTUCKY

CITY           SKY/WX    TMP DP  RH WIND       PRES   REMARKS
PADUCAH        PTSUNNY   63  60  90 CALM      30.09R
HENDERSON      SUNNY     59  55  88 CALM      30.09S
OWENSBORO      SUNNY     61  60  96 CALM      30.10R
HOPKINSVILLE   MOSUNNY   59  59  99 CALM      30.10R
BOWLING GREEN  SUNNY     62  58  86 CALM      30.11R
GLASGOW        MOSUNNY   58  58 100 CALM      30.11S FOG
$$

KYZ024-025-028>034-038-045-046-053-311300-
NORTH CENTRAL KENTUCKY

CITY           SKY/WX    TMP DP  RH WIND       PRES   REMARKS
LOUISVILLE/SDF MOSUNNY   66  61  84 CALM      30.09S
LOUISVILLE/LOU SUNNY     65  60  84 CALM      30.10S
FORT KNOX      SUNNY     60  56  87 CALM      30.09S
$$

KYZ035>037-039>044-047>052-055>060-089>105-311300-
NORTHEAST KENTUCKY

CITY           SKY/WX    TMP DP  RH WIND       PRES   REMARKS
LEXINGTON      SUNNY     63  58  83 CALM      30.12S
COVINGTON      SUNNY     63  61  93 CALM      30.09S FOG
FRANKFORT      SUNNY     61  58  90 CALM      30.10R
$$

KYZ054-064>069-076>088-106>120-311300-
SOUTHEAST KENTUCKY

CITY           SKY/WX    TMP DP  RH WIND       PRES   REMARKS
JACKSON        MOSUNNY   62  58  86 CALM      30.14R
LONDON         MOSUNNY   60  57  89 CALM      30.14R
SOMERSET       MOSUNNY   59  59 100 CALM      30.13S FOG
MIDDLESBORO    FOG       58  58 100 CALM      30.16R VSB 1
MONTICELLO     PTSUNNY   59  58  96 CALM      30.14S FOG
$$




USA.gov is the U.S. government's official web portal to all federal, state and local government web resources and services.